SL-3 R/B, 11963

Orbit data source: Space-Track

SL-3 R/B, 11963 is space debris in LEO originally from a launch on Tue, 09 Sep 1980 UTC launched from the Plesetsk Missile And Space Complex (PKMTR). Debris objects in space refer to the collection of defunct objects orbiting the Earth. Examples of debris include non-operational satellites, rocket bodies, and fragments generated from explosions, collisions, or faulty payload assembly.

Loading next visibility...
Identifier
11963, 1980-073B
Orbit
LEO
Country
Flag of CISCIS
Related business
Manufacturer
Progress
Mission
Spacecraft
Bus & Motor
BLOK-E, Unknown motor
Mass
1,440 kg wet, 1,440 kg dry
Launch date (UTC)
1980-09-09 (45 years ago)
Launch vehicle
Unknown
Launch site
Plesetsk Missile And Space Complex (PKMTR)
Object type
Payload
Rocket body
Debris
Shape & HBR
Unknown
Radar Cross Section
Large (>1 m²)

Expand to show TLE details & history
Last TLE update: 13 hours ago

TLE from 13 hours ago
0 SL-3 R/B
1 11963U 80073B   25352.25964511  .00000236  00000-0  12373-3 0  9998
2 11963  81.2764 353.1644 0072755 283.5786  75.7288 14.10141563327916
Epoch: 2025-12-18T06:13Z
TLE epoch observation values (Epoch: 2025-12-18T06:13:53.337Z)
Latitude
-0.00005°
Longitude
172.57444°
Altitude
849.167 km
Speed
7.435 km/s
True Right ascension
23h 32m 39s
True Declination
0° 00' 00"
Sunlit
Object was in daylight at epoch
Visualization orbit readout
Latitude
Unknown
Longitude
Unknown
Altitude
Unknown
Speed
Unknown
Apparent Right ascension
Unknown
Apparent Declination
Unknown
Sunlit
N/A
Visualization observer readout
Local Sidereal Time
18:32:35
Azimuth
Unknown
Elevation
Unknown
Doppler factor
Unknown
Orbital elements
Apogee altitude
908.692 km
Perigee altitude
803.427 km
Semi-major axis
7,234.197 km
Eccentricity
0.00728
Inclination
81.2764°
RAAN
353.1644°
Arg. of periapsis
283.5786°
True anomaly
76.53857°
Mean anomaly
75.7288°
Eccentric anomaly
76.13351°
Mean motion
3.52742 °/min
Orbital period
102.06 mins
BSTAR
0.00012373
Loading maneuver chart data...
Computing Atmospheric mass density...
Loading historical data...
Loading historical data...
Loading historical data...
Loading historical data...
Loading historical data...
Loading historical data...
Loading historical data...

Documentation

Showing up to 5 results
|